Location: Washington
(38.8950°N, 77.0367°W)
Time: 05:51:51
(UTC-04:00)

N. Korean satellite - Visible Passes

Search period start: 30 August 2015 00:00
Search period end: 09 September 2015 00:00
Orbit: 472 x 534 km, 97.3° (Epoch: 29 August)

Date Brightness Start Highest point End Pass type
(mag) Time Alt. Az. Time Alt. Az. Time Alt. Az.
30 Aug 9.4 21:04:36 10° SW 21:07:15 19° W 21:09:52 10° NW visible
31 Aug 8.4 20:45:12 10° SSW 20:48:28 32° W 20:51:47 10° NNW visible
01 Sep 7.2 20:26:11 10° S 20:29:44 59° W 20:33:22 10° NNW visible
02 Sep 6.5 20:07:28 10° SSE 20:11:03 75° ENE 20:14:45 10° N visible
03 Sep 9.9 21:25:25 10° WSW 21:26:34 11° W 21:27:32 10° WNW visible
04 Sep 9.4 21:05:00 10° SW 21:07:40 19° W 21:10:19 10° NW visible
05 Sep 8.5 20:45:32 10° SSW 20:48:50 32° W 20:52:12 10° NNW visible
06 Sep 7.3 20:26:28 10° S 20:30:03 58° W 20:33:45 10° NNW visible
07 Sep 6.6 20:07:41 10° SSE 20:11:20 76° ENE 20:15:05 10° N visible
08 Sep 7.1 19:49:11 10° SE 19:52:40 42° ENE 19:56:14 10° N visible
08 Sep 9.9 21:25:37 10° WSW 21:26:49 11° W 21:27:50 10° WNW visible
